User: anonymous   Login
Location: NJAA Observatory
(40.6819°N, 74.8979°W)
Time: 03:52:43
(UTC-04:00)
Language:

Iridium 84 - Orbit

View from above orbital plane
View from above orbital plane
View from above satellite
View from above satellite

Ground track
Ground track

The orbit data is extracted from the following two-line orbital elements,

1 25530U 98066D   16243.48924813  .00000142  00000-0  43808-4 0  9993
2 25530  86.3945 111.5331 0002205  83.2936 276.8510 14.34217405935330
Epoch (UTC): 30 August 2016 11:44:31
Eccentricity: 0.0002205
inclination: 86.3945°
perigee height: 776 km
apogee height: 779 km
right ascension of ascending node: 111.5331°
argument of perigee: 83.2936°
revolutions per day: 14.34217405
mean anomaly at epoch: 276.8510°
orbit number at epoch: 93533

The dashed part of the orbit path shows where the satellite is in the earth's shadow,  

DLR